CAPE
51 100 128 92 121 161 274 301 181 43 138 233 236 150 27 12 13 131 99 28 0 0 0 0 0 0 0 0 0 0 0 0 0 0 0 0 0 0 0 0 0 0 0 0 0 0 0
109 87 114 96 154 144 168 110 93 102 167 146 98 27 18 280 218 146 97 12 0 0 0 0 0 0 0 0 0 0 0 0 0 0 0 0 0 0 0 0 0 0 0 0 0 0 0
98 82 104 106 99 90 70 72 87 174 111 123 99 110 140 132 92 48 0 0 0 0 0 0 0 0 0 0 0 0 0 0 0 0 0 0 0 0 0 0 0 0 0 0 0 0 0
63 60 59 95 108 102 97 75 47 53 152 88 56 61 22 36 11 0 0 0 0 0 0 0 0 0 0 0 0 0 0 0 0 0 0 0 0 0 0 0 0 0 0 0 0 0 0
42 44 32 17 14 95 76 39 25 17 10 8 5 0 1 0 0 0 0 0 0 0 0 0 0 0 0 0 0 0 0 0 0 0 0 0 0 0 0 0 0 0 0 0 0 0 0
29 34 32 36 4 13 42 50 23 18 15 0 0 0 0 0 0 0 0 0 0 0 0 0 0 0 0 0 0 0 0 0 0 0 0 0 0 0 0 0 0 0 0 0 0 0 0
8 4 5 1 0 0 0 2 3 0 0 0 0 0 0 0 0 0 0 0 0 0 0 0 0 0 0 0 0 0 0 0 0 0 0 0 0 0 0 0 0 0 0 0 0 0 0
1 0 0 1 0 0 0 0 0 0 0 0 0 0 0 0 0 0 0 0 0 0 0 0 0 0 0 0 0 0 0 0 0 0 0 0 0 0 0 0 0 0 0 0 0 0 0
2 0 0 0 0 0 0 0 0 0 0 0 0 0 0 0 0 0 0 0 0 0 0 0 0 0 0 0 0 0 0 0 0 0 0 0 0 0 0 0 0 0 0 0 0 0 0
0 2 0 0 0 0 0 0 0 0 0 0 0 0 0 0 0 0 0 0 0 0 0 0 0 0 0 0 0 0 0 0 0 0 0 0 0 0 0 0 0 0 0 0 0 0 0
1 1 0 0 0 0 0 0 0 0 0 0 0 0 0 0 0 0 0 0 0 0 0 0 0 0 0 0 0 0 0 0 0 0 0 0 0 0 0 0 0 0 0 0 0 0 0
4 1 0 0 0 0 0 0 0 0 0 0 0 0 0 0 0 0 0 0 0 0 0 0 0 0 0 0 0 0 0 0 0 0 0 0 0 0 0 0 0 0 0 0 0 0 0
1 3 0 0 0 0 0 0 0 0 0 0 0 0 0 0 0 0 0 0 0 0 0 0 0 0 0 0 0 0 0 0 0 0 0 0 0 0 0 0 0 0 0 0 0 0 0
0 0 0 0 0 0 0 0 0 0 0 0 0 0 0 0 0 0 0 0 0 0 0 0 0 0 0 0 0 0 0 0 0 0 0 0 0 0 0 0 0 0 0 0 0 0 0
2 1 0 0 0 0 0 0 0 0 1 0 0 0 0 0 0 0 0 0 0 0 0 0 0 0 0 0 0 0 0 0 0 0 0 0 0 0 0 0 0 0 0 0 0 0 0
2 1 0 0 0 0 0 0 0 0 0 0 0 0 0 0 0 0 0 0 0 0 0 0 0 0 0 0 0 0 0 0 0 0 0 0 0 0 0 0 0 0 0 0 0 0 0
5 2 0 0 0 0 0 0 0 0 0 0 0 0 0 0 0 0 0 0 0 0 0 0 0 0 0 0 0 0 0 0 0 0 0 0 0 0 0 0 0 0 0 0 0 0 0
8 8 3 0 0 0 0 0 0 0 0 0 0 0 0 0 0 0 0 0 0 0 0 0 0 0 0 0 0 0 0 0 0 0 0 0 0 0 0 0 0 0 0 0 0 0 0
11 14 9 1 0 0 0 0 0 0 0 0 0 0 0 0 0 0 0 0 0 0 0 0 0 0 0 0 0 0 0 0 0 0 0 0 0 0 0 0 0 0 0 0 0 0 0
13 12 11 8 0 0 0 0 0 0 0 0 0 0 0 0 0 0 0 0 0 0 0 0 0 0 0 0 0 0 0 0 0 0 0 0 0 0 0 0 0 0 0 0 0 0 0
10 12 8 7 3 0 0 0 0 0 0 0 0 0 0 0 0 0 0 0 0 0 0 0 0 0 0 0 0 0 0 0 0 0 0 0 0 0 0 0 0 0 0 0 0 0 0
2 7 6 4 4 0 0 0 0 0 0 0 0 0 0 0 0 0 0 0 0 0 0 0 0 0 0 0 0 0 0 0 0 0 0 0 0 0 0 0 0 0 0 0 0 0 0
0 0 2 0 0 0 0 0 0 0 0 0 0 0 0 0 0 0 0 0 0 0 0 0 0 0 0 0 0 0 0 0 0 0 0 0 0 0 0 0 0 0 0 0 0 0 0
0 0 0 0 0 0 0 0 0 0 0 0 0 0 0 0 0 0 0 0 0 0 0 0 0 0 0 0 0 0 0 0 0 0 0 0 0 0 0 0 0 0 0 0 0 0 0
0 0 0 0 0 0 0 0 0 0 0 0 0 0 0 0 0 0 0 0 0 0 0 0 0 0 0 0 0 0 0 0 0 0 0 0 0 0 0 0 0 0 0 0 0 0 0
0 0 0 0 0 0 0 0 0 0 0 0 0 0 0 0 0 0 0 0 0 0 0 0 0 0 0 0 0 0 0 0 0 0 0 0 0 0 0 0 0 0 0 0 0 0 0
1 3 4 0 0 0 0 0 0 0 0 0 0 0 0 0 0 0 0 0 0 0 0 0 0 0 0 0 0 0 0 0 0 0 0 0 0 0 0 0 0 0 0 0 0 0 0
1 3 7 6 2 0 0 0 0 0 0 0 0 0 0 0 0 0 0 0 0 0 0 0 0 0 0 0 0 0 0 0 0 0 0 0 0 0 0 0 0 0 0 0 0 0 0
1 1 0 0 0 0 0 0 0 0 0 0 0 0 0 0 0 0 0 0 0 0 0 0 0 0 0 0 0 0 0 0 0 0 0 0 0 0 0 0 0 0 0 0 0 0 0
CIN
0 0 0 0 0 -3 0 0 -2 -8 -8 0 -3 0 -4 -28 -68 -56 -1 0 0 0 0 0 0 0 0 0 0 0 0 0 0 0 0 0 0 0 0 0 0 0 0 0 0 0 0
0 0 0 0 0 -6 -7 -4 0 -1 -2 0 0 -23 -11 -14 -8 -6 0 -12 0 0 0 0 0 0 0 0 0 0 0 0 0 0 0 0 0 0 0 0 0 0 0 0 0 0 0
0 0 0 0 0 0 0 0 -5 -5 -1 0 0 0 0 0 -11 -21 -1 0 0 0 0 0 0 0 0 0 0 0 0 0 0 0 0 0 0 0 0 0 0 0 0 0 0 0 0
0 0 0 0 0 0 0 0 -3 -1 0 0 -1 -1 -6 -16 -41 -43 0 0 0 0 0 0 0 0 0 0 0 0 0 0 0 0 0 0 0 0 0 0 0 0 0 0 0 0 0
0 -3 -3 -8 -2 0 0 -8 -6 -9 -8 -20 -13 0 -26 0 0 0 0 0 0 0 0 0 0 0 0 0 0 0 0 0 0 0 0 0 0 0 0 0 0 0 0 0 0 0 0
0 0 0 -3 -3 -21 -24 -29 -43 -44 -52 -2 -12 0 0 0 0 0 0 0 0 0 0 0 0 0 0 0 0 0 0 0 0 0 0 0 0 0 0 0 0 0 0 0 0 0 0
0 0 0 0 0 0 0 -56 -63 0 0 0 0 0 0 0 0 0 0 0 0 0 0 0 0 0 0 0 0 0 0 0 0 0 0 0 0 0 0 0 0 0 0 0 0 0 0
0 0 0 0 0 0 0 0 0 0 0 0 0 0 0 0 0 0 0 0 0 0 0 0 0 0 0 0 0 0 0 0 0 0 0 0 0 0 0 0 0 0 0 0 0 0 0
0 0 0 0 0 0 0 0 0 0 0 0 0 0 0 0 0 0 0 0 0 0 0 0 0 0 0 0 0 0 0 0 0 0 0 0 0 0 0 0 0 0 0 0 0 0 0
0 0 0 0 0 0 0 0 0 0 0 0 0 0 0 0 0 0 0 0 0 0 0 0 0 0 0 0 0 0 0 0 0 0 0 0 0 0 0 0 0 0 0 0 0 0 0
0 0 0 0 0 0 0 0 0 0 0 0 0 0 0 0 0 0 0 0 0 0 0 0 0 0 0 0 0 0 0 0 0 0 0 0 0 0 0 0 0 0 0 0 0 0 0
0 0 0 0 0 0 0 0 0 0 0 0 0 0 0 0 0 0 0 0 0 0 0 0 0 0 0 0 0 0 0 0 0 0 0 0 0 0 0 0 0 0 0 0 0 0 0
0 0 0 0 0 0 0 0 0 0 0 0 0 0 0 0 0 0 0 0 0 0 0 0 0 0 0 0 0 0 0 0 0 0 0 0 0 0 0 0 0 0 0 0 0 0 0
0 0 0 0 0 0 0 0 0 0 0 0 0 0 0 0 0 0 0 0 0 0 0 0 0 0 0 0 0 0 0 0 0 0 0 0 0 0 0 0 0 0 0 0 0 0 0
0 0 0 0 0 0 0 0 0 0 0 0 0 0 0 0 0 0 0 0 0 0 0 0 0 0 0 0 0 0 0 0 0 0 0 0 0 0 0 0 0 0 0 0 0 0 0
0 0 0 0 0 0 0 0 0 0 0 0 0 0 0 0 0 0 0 0 0 0 0 0 0 0 0 0 0 0 0 0 0 0 0 0 0 0 0 0 0 0 0 0 0 0 0
0 0 0 0 0 0 0 0 0 0 0 0 0 0 0 0 0 0 0 0 0 0 0 0 0 0 0 0 0 0 0 0 0 0 0 0 0 0 0 0 0 0 0 0 0 0 0
0 0 0 0 0 0 0 0 0 0 0 0 0 0 0 0 0 0 0 0 0 0 0 0 0 0 0 0 0 0 0 0 0 0 0 0 0 0 0 0 0 0 0 0 0 0 0
-3 -2 -4 -2 0 0 0 0 0 0 0 0 0 0 0 0 0 0 0 0 0 0 0 0 0 0 0 0 0 0 0 0 0 0 0 0 0 0 0 0 0 0 0 0 0 0 0
-5 -3 -2 -3 0 0 0 0 0 0 0 0 0 0 0 0 0 0 0 0 0 0 0 0 0 0 0 0 0 0 0 0 0 0 0 0 0 0 0 0 0 0 0 0 0 0 0
-6 -3 -5 -4 -6 0 0 0 0 0 0 0 0 0 0 0 0 0 0 0 0 0 0 0 0 0 0 0 0 0 0 0 0 0 0 0 0 0 0 0 0 0 0 0 0 0 0
-8 -2 -2 -3 -6 0 0 0 0 0 0 0 0 0 0 0 0 0 0 0 0 0 0 0 0 0 0 0 0 0 0 0 0 0 0 0 0 0 0 0 0 0 0 0 0 0 0
0 -2 -3 0 0 0 0 0 0 0 0 0 0 0 0 0 0 0 0 0 0 0 0 0 0 0 0 0 0 0 0 0 0 0 0 0 0 0 0 0 0 0 0 0 0 0 0
0 0 0 0 0 0 0 0 0 0 0 0 0 0 0 0 0 0 0 0 0 0 0 0 0 0 0 0 0 0 0 0 0 0 0 0 0 0 0 0 0 0 0 0 0 0 0
0 0 0 0 0 0 0 0 0 0 0 0 0 0 0 0 0 0 0 0 0 0 0 0 0 0 0 0 0 0 0 0 0 0 0 0 0 0 0 0 0 0 0 0 0 0 0
0 0 0 0 0 0 0 0 0 0 0 0 0 0 0 0 0 0 0 0 0 0 0 0 0 0 0 0 0 0 0 0 0 0 0 0 0 0 0 0 0 0 0 0 0 0 0
0 0 0 0 0 0 0 0 0 0 -2 0 0 0 0 0 0 0 0 0 0 0 0 0 0 0 0 0 0 0 0 0 0 0 0 0 0 0 0 0 0 0 0 0 0 0 0
0 0 0 0 0 0 0 0 0 0 0 0 0 0 0 0 0 0 0 0 0 0 0 0 0 0 0 0 0 0 0 0 0 0 0 0 0 0 0 0 0 0 0 0 0 0 0
0 0 0 0 0 0 0 0 0 0 0 0 0 0 0 0 0 0 0 0 0 0 0 0 0 0 0 0 0 0 0 0 0 0 0 0 0 0 0 0 0 0 0 0 0 0 0
Wind_Speed
24 22 26 25 24 24 24 22 20 11 11 17 17 17 13 12 10 21 18 17 16 14 10 5 3 3 5 9 4 7 19 14 3 5 6 4 5 4 5 4 2 4 2 2 1 4 3
25 27 27 26 26 22 24 24 18 13 20 19 18 15 15 24 23 19 16 15 12 8 7 7 6 4 7 11 5 7 10 7 8 6 5 6 4 3 7 4 3 2 2 1 1 2 1
25 27 28 27 28 26 27 26 29 30 22 24 18 19 18 23 20 17 14 13 12 10 9 10 8 5 15 3 3 8 7 5 6 2 5 3 2 5 4 4 1 2 2 1 5 4 3
27 27 27 28 28 26 27 25 26 29 29 23 23 22 20 17 15 13 12 12 10 10 10 8 6 6 7 2 4 6 8 4 7 5 5 3 6 8 5 3 5 4 4 3 2 5 4
24 26 26 27 28 25 23 22 24 25 25 24 22 20 17 15 13 11 10 11 10 9 8 4 7 7 4 6 5 6 5 3 5 4 6 4 7 5 5 4 4 7 1 2 7 4 4
23 23 24 24 23 22 22 22 23 23 22 20 19 18 15 14 11 8 7 4 8 6 7 2 4 6 6 4 5 5 4 3 6 3 5 9 7 5 5 5 2 1 3 3 4 4 3
23 24 24 23 22 23 23 23 22 22 20 18 15 13 16 16 11 11 4 3 7 11 13 6 2 5 1 6 2 6 4 4 4 9 6 6 10 4 1 3 3 4 1 3 4 3 6
21 22 23 22 22 22 22 22 21 20 19 17 15 14 10 9 16 7 6 7 1 5 7 5 3 4 1 1 4 12 6 6 7 4 4 7 4 3 1 1 2 2 0 4 6 3 3
20 20 20 21 21 20 20 20 19 18 18 19 17 16 10 9 6 9 7 4 2 1 7 5 3 4 4 5 3 8 6 2 5 6 5 6 3 2 1 1 2 0 1 1 4 8 2
20 20 19 19 19 19 19 18 19 19 18 16 15 14 15 7 9 2 5 5 3 1 8 10 7 5 3 1 5 1 2 3 6 4 3 5 1 1 1 1 2 3 2 0 4 5 4
18 19 20 19 18 18 18 19 19 18 17 14 13 11 10 13 5 5 3 4 2 4 7 7 6 3 3 6 1 8 2 5 4 3 4 2 4 1 1 1 2 2 2 2 1 2 3
17 17 16 17 18 18 18 19 19 18 16 14 12 12 4 6 5 0 3 2 4 11 2 5 4 5 3 5 3 3 4 6 3 4 4 2 1 2 1 1 0 2 3 5 3 1 2
15 16 17 17 17 18 19 20 19 19 17 13 10 10 8 2 1 2 1 4 9 8 3 3 2 4 2 4 4 5 5 6 3 5 5 5 1 1 1 2 2 6 6 4 6 5 4
16 15 15 15 16 17 18 18 18 20 17 11 7 7 5 3 1 1 3 8 10 2 4 2 1 1 4 5 4 4 2 3 2 4 3 4 6 1 1 2 4 2 4 6 4 2 6
13 14 15 15 15 16 16 17 18 17 15 8 4 3 3 4 3 2 6 8 8 6 4 5 1 3 3 2 1 3 2 3 3 2 4 3 4 1 2 2 3 2 2 2 5 1 2
12 12 13 14 14 15 16 17 17 16 14 5 3 2 2 5 3 5 7 4 2 2 1 1 3 2 4 1 1 1 2 2 3 2 3 4 3 0 1 2 3 1 5 3 3 1 5
12 13 13 14 14 14 15 17 17 17 15 2 4 4 3 4 3 6 5 3 3 3 1 1 3 3 2 3 2 1 2 2 4 3 3 4 3 3 1 5 6 2 0 3 3 2 2
10 11 13 14 14 15 17 17 19 19 13 7 3 3 2 2 6 2 3 3 2 3 0 1 3 2 3 3 1 2 4 4 5 6 3 2 4 4 6 2 1 2 5 5 4 3 1
9 10 11 11 12 14 17 18 20 20 9 3 3 2 2 3 4 2 0 2 2 1 0 1 1 0 1 2 1 4 3 1 6 5 6 5 0 4 5 5 3 3 4 3 3 2 7
10 10 10 10 11 13 14 17 20 19 6 5 3 4 6 6 1 5 2 1 2 1 2 2 1 2 1 1 2 2 2 0 4 4 4 5 3 6 7 4 3 4 5 6 5 4 4
9 10 12 12 11 13 15 17 18 20 8 4 5 0 2 3 4 3 2 3 2 1 1 0 0 3 4 1 1 3 3 3 1 1 3 4 4 4 7 10 6 11 14 10 14 11 10
6 7 8 10 11 12 14 16 19 21 7 6 3 2 2 1 2 1 3 3 4 2 4 2 3 2 5 5 8 5 4 4 5 2 4 2 3 1 6 9 6 9 17 17 18 19 19
4 6 6 7 9 10 12 13 16 20 8 4 1 1 3 2 2 2 2 2 2 0 2 2 5 2 3 9 6 8 7 3 4 7 6 4 2 2 7 3 9 10 9 12 6 4 17
6 6 5 5 6 8 10 11 12 14 9 3 1 2 3 2 0 2 1 3 3 3 2 1 4 4 2 3 4 0 1 3 4 5 3 6 4 2 6 8 3 4 1 8 10 7 15
8 7 6 4 4 5 7 9 10 10 11 4 2 3 2 2 2 3 2 3 4 3 3 3 3 2 1 4 3 6 2 1 2 3 4 3 5 2 3 2 12 3 2 5 5 7 8
11 9 7 4 3 4 5 7 8 8 8 3 1 2 3 2 4 1 2 3 2 2 3 2 1 1 3 2 2 1 3 2 1 1 6 4 2 5 3 3 6 1 1 2 2 4 5
13 10 8 6 3 1 2 4 5 5 3 3 1 2 3 0 4 3 4 3 3 1 3 2 2 2 3 2 2 3 4 2 3 3 4 3 1 10 8 5 11 9 4 2 2 2 4
12 9 8 7 6 3 1 4 5 4 2 3 2 2 2 3 5 6 4 4 0 2 3 1 1 1 2 3 4 4 3 4 2 5 7 7 7 6 5 4 12 4 3 4 2 1 4
10 8 7 7 7 3 1 2 4 5 4 4 2 1 2 3 5 4 6 7 7 6 4 2 2 2 5 2 2 1 3 2 4 4 1 3 7 6 12 11 3 3 5 4 3 6 7
Wind_Direction
33 36 36 47 43 42 45 51 95 121 125 117 122 121 124 115 95 128 119 123 127 122 114 110 93 56 61 52 49 300 326 332 347 44 50 69 59 104 100 100 76 78 149 79 346 294 283
30 44 46 45 40 42 50 60 52 101 108 107 100 97 87 108 117 114 120 125 130 118 110 103 109 83 71 75 276 310 316 342 27 43 32 35 111 119 95 77 73 130 102 286 293 329 51
33 42 39 47 50 57 61 48 35 55 123 106 110 104 104 102 107 109 110 109 109 109 93 113 98 91 68 152 310 320 352 10 350 45 86 34 80 71 133 95 144 86 125 66 15 346 353
41 38 41 46 55 54 52 42 47 60 83 84 81 78 73 77 83 93 102 100 103 101 94 99 84 64 87 304 286 359 346 3 14 30 87 57 78 96 57 115 28 51 61 10 340 354 7
36 38 40 47 47 51 47 46 51 55 60 64 67 67 65 71 71 73 82 95 96 81 71 149 41 87 70 330 22 319 20 9 328 19 34 70 68 78 34 69 27 11 22 1 325 38 337
32 37 42 44 47 46 47 41 43 46 50 55 57 55 54 51 45 50 55 69 55 61 14 53 73 60 15 330 306 330 332 24 44 339 21 38 49 71 33 48 222 315 3 319 265 331 352
32 32 37 40 38 40 42 44 41 41 42 46 46 47 53 45 38 28 58 22 23 8 32 77 275 100 19 301 317 350 355 359 29 52 43 11 64 77 103 40 103 107 96 278 264 296 318
36 35 34 34 35 34 36 36 37 37 36 35 33 28 35 58 48 65 68 72 70 172 73 32 65 68 58 306 18 353 12 62 49 63 338 29 78 196 190 92 102 95 33 293 275 278 275
32 35 34 35 34 35 31 32 33 31 30 27 23 22 17 37 67 43 78 76 297 232 86 11 13 40 328 40 60 338 21 58 76 53 12 111 149 144 142 60 40 322 188 312 253 321 231
24 24 31 34 34 32 30 29 25 23 21 19 18 18 15 322 46 320 49 325 315 242 79 331 350 6 0 70 44 304 6 102 40 120 76 82 102 116 86 289 112 324 190 313 306 7 295
28 27 19 24 29 31 27 26 22 17 10 5 10 12 37 42 143 58 272 324 327 53 67 305 321 284 354 78 245 355 347 27 77 92 85 210 147 161 223 259 182 262 22 333 5 83 349
28 29 30 24 20 20 20 22 17 10 5 359 356 357 68 31 47 340 316 2 40 44 266 338 312 348 30 20 31 315 45 49 127 79 34 85 229 182 245 11 141 57 62 39 57 359 11
37 30 23 21 21 17 14 9 7 4 2 2 1 29 38 45 94 303 60 47 44 93 275 301 10 12 90 14 24 32 31 22 64 61 355 347 339 291 171 52 25 57 52 337 355 8 230
23 27 28 24 17 12 8 5 1 357 355 3 32 46 32 59 331 20 48 53 73 207 213 217 292 63 70 11 30 21 63 36 79 76 94 90 325 191 171 172 176 81 130 144 237 311 289
25 24 21 20 15 10 5 359 355 353 349 358 41 10 40 346 8 62 75 56 183 197 168 161 84 83 19 45 80 51 46 192 210 160 126 135 265 282 212 170 126 156 53 164 100 344 318
20 22 18 16 14 7 1 355 351 351 355 348 82 58 355 319 15 64 75 134 148 222 153 151 134 180 168 259 116 47 210 194 176 179 145 183 339 217 2 97 38 187 152 55 22 11 297
13 11 11 10 6 4 359 353 350 350 351 297 55 53 256 348 77 48 100 179 192 235 221 132 173 129 167 165 160 222 228 236 182 159 100 133 114 282 74 197 182 135 176 60 119 145 196
14 13 9 4 1 356 354 353 352 354 356 61 90 47 286 99 51 42 73 137 174 160 35 70 107 106 160 168 188 235 224 231 169 154 143 169 143 258 215 131 105 177 189 162 129 217 188
6 10 12 6 359 354 353 351 353 357 28 111 80 263 314 93 85 32 274 63 64 93 337 76 109 144 131 180 201 202 231 333 158 152 167 183 356 339 353 12 8 237 205 158 111 92 201
356 2 6 5 2 359 357 353 352 360 19 80 76 23 338 48 77 115 107 74 119 44 118 138 136 104 128 223 221 257 259 268 188 180 154 125 152 191 202 193 145 218 201 198 170 175 197
348 354 1 2 7 1 357 356 357 358 354 89 23 81 178 341 3 68 103 147 135 207 67 112 332 220 181 234 247 234 236 292 135 194 76 129 229 189 259 260 235 244 241 207 207 205 215
331 345 347 346 8 1 359 358 357 2 1 76 90 99 17 101 306 62 350 206 182 196 162 221 200 184 189 208 201 226 189 207 225 68 147 24 268 97 273 271 257 264 247 231 232 236 248
278 308 328 357 0 2 2 0 2 6 30 75 338 59 107 352 17 80 219 166 235 89 187 194 197 136 223 243 235 235 210 211 198 163 178 157 171 30 271 319 299 280 248 184 192 221 221
266 274 299 330 360 6 4 4 6 20 57 112 141 87 73 300 145 225 199 195 218 221 234 187 162 166 249 328 306 238 195 225 192 228 171 140 134 162 284 339 283 268 122 173 199 227 215
255 260 267 292 344 5 9 4 8 20 34 84 131 72 85 302 228 295 243 238 300 288 245 230 215 204 354 35 351 330 325 248 53 40 203 153 138 282 270 270 293 314 147 138 176 294 218
237 233 245 268 311 13 20 16 9 14 40 71 57 118 83 82 254 183 174 189 235 249 322 244 84 125 74 79 60 281 272 310 270 104 23 138 124 173 151 222 257 293 334 158 173 356 43
233 211 212 217 245 297 30 13 5 349 36 107 265 135 90 336 268 155 204 197 158 176 227 261 170 140 49 104 193 215 263 200 270 222 153 103 141 222 229 267 285 265 256 260 7 267 332
211 197 206 202 199 191 36 348 333 303 303 136 228 175 157 218 270 196 231 187 103 218 196 230 4 21 70 171 175 224 206 245 259 172 176 172 156 194 182 224 265 170 58 174 242 253 277
162 152 137 124 117 107 6 332 322 295 269 161 257 157 152 195 252 212 228 230 207 204 150 243 255 170 203 133 223 154 238 220 198 257 180 247 202 185 192 214 226 230 254 294 263 278 283